Regional Weather Roundup
Issued by NWS Northern Indiana

Home | Current Version | Previous Version | Text Only | Print | Product List | Glossary Off
Versions: 1 2 3 4 5 6 7 8 9 10 11 12 13 14 15 16 17 18 19 20 21 22 23 24 25 26 27 28 29 30 31 32 33 34 35 36 37 38 39 40 41 42 43 44 45 46 47 48 49 50

610
ASUS43 KIWX 051310
RWRIWX

KIWX WEATHER ROUNDUP
NATIONAL WEATHER SERVICE NORTHERN INDIANA
800 AM EST FRI FEB 05 2016

NOTE: "FAIR" INDICATES FEW OR NO CLOUDS BELOW 12,000 FEET WITH NO
SIGNIFICANT WEATHER AND/OR OBSTRUCTIONS TO VISIBILITY.

* THESE STATIONS ARE NOT UNDER NWS QUALITY CONTROL. THEY ALSO MAY NOT
  REPORT WEATHER SUCH AS PRECIPITATION OR FOG.

INZ001>027-051400-
NORTHERN INDIANA

CITY           SKY/WX    TMP DP  RH WIND       PRES   REMARKS
GARY*          CLOUDY    30  23  74 SW7       30.32R WCI  23
VALPARAISO     CLOUDY    26  21  81 SW6       30.32R WCI  19
MICHIGAN CITY* MOCLDY    27  23  86 S3        30.32R
LAPORTE*       CLOUDY    28  25  89 SW5       30.32R WCI  22
SOUTH BEND     MOCLDY    25  19  78 S6        30.32R WCI  18
ELKHART*         N/A     23  19  86 CALM      30.32R
GOSHEN         PTCLDY    24  19  81 S7        30.32R WCI  16
MONTICELLO*    PTCLDY    24  16  71 S3        30.33R
LOGANSPORT*    CLEAR     23  16  74 SW5       30.35R WCI  17
ROCHESTER*     PTCLDY    28  18  64 S5        30.33R WCI  23
WARSAW*        CLEAR     23  19  86 S3        30.32S
ANGOLA*        PTCLDY    18  18 100 CALM      30.31R
FORT WAYNE     PTCLDY    20  17  88 S7        30.35S WCI  11
HUNTINGTON*    CLEAR     21  15  78 S3        30.34S
PERU/GRISSOM   CLEAR     23  18  82 S7        30.32R WCI  14
MARION*        CLEAR     21  12  68 S7        30.36R WCI  13

$$
INZ028>050-051400-
CENTRAL INDIANA

CITY           SKY/WX    TMP DP  RH WIND       PRES   REMARKS
LAFAYETTE      PTCLDY    22  17  81 SW3       30.35R
KOKOMO*        CLEAR     21  16  79 S9        30.34R WCI  11
MUNCIE*        CLEAR     24  17  74 S7        30.36R WCI  16
INDIANAPOLIS   CLEAR     21  15  78 SE6       30.35R WCI  13

$$
MIZ043>046-050>051-056>058-064>065-071>073-077>080-051400-
SOUTHWEST LOWER MICHIGAN

CITY           SKY/WX    TMP DP  RH WIND       PRES   REMARKS
BATTLE CREEK   CLEAR     18  15  88 S3        30.30R
BENTON HARBOR  MOCLDY    25  21  85 SE3       30.31R
COLDWATER*     PTCLDY    20  19  93 CALM      30.31S
HILLSDALE*     CLEAR     14  13  95 CALM      30.30S FOG
HOLLAND        LGT SNOW  28  23  81 S6        30.30R WCI  22
GRAND RAPIDS   MOCLDY    25  20  81 S10       30.29R WCI  15
KALAMAZOO      CLOUDY    21  17  84 SE3       30.31R
STURGIS*       MOCLDY    19  17  92 S3        30.31R
THREE RIVERS*  MOCLDY    20  19  95 CALM      30.31S

$$
OHZ001>008-015>018-024>025-051400-
NORTHWEST OHIO

CITY           SKY/WX    TMP DP  RH WIND       PRES   REMARKS
DEFIANCE       CLEAR     23  18  81 S5        30.36R WCI  17
FINDLAY        CLOUDY    23  18  81 S5        30.36R WCI  17
TOLEDO EXPRESS CLEAR     18  14  84 CALM      30.36R
TOLEDO METCALF PTCLDY    20  14  77 S5        30.37R HAZE    WCI  13
LIMA           CLEAR     20  17  88 S6        30.36R WCI  12

$$
AND FOR LAKE MICHIGAN COASTAL AND OPEN LAKE BUOY OBSERVATIONS

STATION/POSITION TEMP    WIND        PRES    VSBY  WAVE
                 AIR SEA DIR/SP/G                  HT/PER
                 (F)     (DEG/KT/KT) (MB)    (MI)  (FT/S)
CALUMET HARBOR    28     220/  5/  6 1025.0R
MICHIGAN CITY     28     150/ 10/ 12   N/A
BURNS HARBOR      29     190/  8/ 11 1026.4R
SAINT JOSEPH      26     130/  4/  7 1027.1R

$$
&&




USA.gov is the U.S. government's official web portal to all federal, state and local government web resources and services.